Back to catalog

DELTA 1 R/B

AliveSSO
NORAD 2096·ROCKET BODY·🇺🇸 United States

Launched Feb 28, 1966 from Cape Canaveral Space Force Station

Loading…

Next Passes (next 24 hours)

TLE

FreshSource: Space-Track

Epoch: Sep 14, 2026, 12:27 UTC

1 02096U 66016B   26257.51941238 -.00000046  00000-0 -22166-4 0  9994
2 02096 100.8743  90.2556 0039819 338.2878  46.4408 12.70001522805412

Track DELTA 1 R/B in real time with AllMySat

Download on the App Store